Powrót do katalogu

CZ-2C DEB

AktywnyHEO
NORAD 43373·DEBRIS·🇨🇳 China

Wystrzelony Dec 29, 2003 z Xichang Satellite Launch Center

Loading…

Następne Przeloty (najbliższe 24 godziny)

TLE

ŚwieżeSource: Space-Track

Epoka: Sep 13, 2026, 04:45 UTC

1 43373U 03061C   26256.19853627  .00031997  52060-6  98303-3 0  9996
2 43373  18.6585 262.3581 6119184 262.1914  28.6852  3.93815584232809

Śledź CZ-2C DEB w czasie rzeczywistym z AllMySat

Download on the App Store